User: anonymous
Location: Vancouver
(49.2500°N, 123.1330°W)
Time: 09:30:04
(UTC-07:00)
Language:

Cosmos 676 Rocket - Orbit

View from above orbital plane
View from above orbital plane
View from above satellite
View from above satellite

Ground track
Ground track

The orbit data is extracted from the following two-line orbital elements,

1 07434U 74071B   14274.44813200  .00000302  00000-0  11186-3 0  3299
2 07434 074.0482 231.2729 0020517 022.7113 115.7651 14.36288452 94598
Epoch (UTC): 01 October 2014 10:45:18
Eccentricity: 0.0020517
inclination: 74.0482°
perigee height: 756 km
apogee height: 785 km
right ascension of ascending node: 231.2729°
argument of perigee: 22.7113°
revolutions per day: 14.36288452
mean anomaly at epoch: 115.7651°
orbit number at epoch: 9459

The dashed part of the orbit path shows where the satellite is in the earth's shadow,  

DLR